TimeEST,TemperatureF,Dew PointF,Humidity,Sea Level PressureIn,VisibilityMPH,Wind Direction,Wind SpeedMPH,Gust SpeedMPH,PrecipitationIn,Events,Conditions,WindDirDegrees,DateUTC
12:53 AM,77.0,73.0,88,30.04,10.0,South,5.8,-,N/A,,Partly Cloudy,170,2012-12-12 05:53:00
1:53 AM,77.0,73.0,88,30.04,10.0,South,5.8,-,N/A,,Partly Cloudy,180,2012-12-12 06:53:00
2:48 AM,77.0,73.4,89,30.03,10.0,SSE,3.5,-,0.00,Rain,Light Rain,160,2012-12-12 07:48:00
2:53 AM,77.0,73.0,88,30.03,10.0,SSE,6.9,-,0.00,Rain,Light Rain,160,2012-12-12 07:53:00
3:06 AM,77.0,73.4,89,30.03,10.0,South,5.8,-,0.00,,Scattered Clouds,180,2012-12-12 08:06:00
3:53 AM,77.0,71.1,82,30.04,10.0,South,5.8,-,0.00,,Partly Cloudy,170,2012-12-12 08:53:00
4:53 AM,77.0,72.0,84,30.03,10.0,SSE,10.4,16.1,N/A,,Partly Cloudy,150,2012-12-12 09:53:00
5:53 AM,77.0,71.1,82,30.04,10.0,SSE,8.1,-,N/A,,Partly Cloudy,160,2012-12-12 10:53:00
6:53 AM,77.0,71.1,82,30.05,10.0,SSE,9.2,-,N/A,,Partly Cloudy,150,2012-12-12 11:53:00
7:53 AM,77.0,71.1,82,30.07,10.0,SSE,9.2,-,N/A,,Partly Cloudy,160,2012-12-12 12:53:00
8:46 AM,78.8,71.6,78,30.10,10.0,South,11.5,-,N/A,,Mostly Cloudy,180,2012-12-12 13:46:00
8:53 AM,79.0,71.1,77,30.09,10.0,South,9.2,-,N/A,,Mostly Cloudy,170,2012-12-12 13:53:00
9:10 AM,78.8,71.6,78,30.09,10.0,SSE,12.7,18.4,N/A,,Scattered Clouds,160,2012-12-12 14:10:00
9:53 AM,79.0,71.1,77,30.10,10.0,South,16.1,21.9,N/A,,Partly Cloudy,180,2012-12-12 14:53:00
10:53 AM,80.1,70.0,71,30.08,10.0,SSE,13.8,21.9,N/A,,Scattered Clouds,150,2012-12-12 15:53:00
11:53 AM,80.1,71.1,74,30.07,10.0,SSE,15.0,20.7,N/A,,Partly Cloudy,160,2012-12-12 16:53:00
12:53 PM,82.0,70.0,67,30.04,10.0,South,9.2,-,N/A,,Scattered Clouds,180,2012-12-12 17:53:00
1:53 PM,81.0,70.0,69,30.04,10.0,South,8.1,17.3,N/A,,Scattered Clouds,190,2012-12-12 18:53:00
2:53 PM,80.1,70.0,71,30.01,10.0,SSE,12.7,-,N/A,,Partly Cloudy,150,2012-12-12 19:53:00
3:53 PM,80.1,69.1,69,30.03,10.0,South,10.4,-,N/A,,Scattered Clouds,180,2012-12-12 20:53:00
4:53 PM,79.0,70.0,74,30.04,10.0,South,6.9,-,N/A,,Partly Cloudy,190,2012-12-12 21:53:00
5:53 PM,78.1,70.0,76,30.06,10.0,South,5.8,-,N/A,,Partly Cloudy,190,2012-12-12 22:53:00
6:53 PM,77.0,70.0,79,30.07,10.0,South,4.6,-,N/A,,Partly Cloudy,180,2012-12-12 23:53:00
7:53 PM,77.0,71.1,82,30.07,10.0,SSE,3.5,-,N/A,,Partly Cloudy,160,2012-12-13 00:53:00
8:53 PM,75.9,71.1,85,30.08,10.0,Calm,Calm,-,N/A,,Clear,0,2012-12-13 01:53:00
9:53 PM,75.0,71.1,87,30.07,10.0,Calm,Calm,-,N/A,,Clear,0,2012-12-13 02:53:00
10:53 PM,73.9,71.1,91,30.07,10.0,South,3.5,-,N/A,,Clear,170,2012-12-13 03:53:00
11:53 PM,73.0,71.1,93,30.06,10.0,South,3.5,-,N/A,,Clear,170,2012-12-13 04:53:00